1507719600.33,55881,11.38,73860.3,1.05,-0.29,-0.37,0,*77
1507719601.54,55882,11.38,73862.8,1.07,-0.29,-0.29,0,*79
1507719602.75,55883,11.38,73864.5,1.07,-0.37,-0.29,0,*77
1507719603.93,55884,11.38,73860.0,1.05,-0.29,-0.29,0,*7D
1507719605.11,55885,11.38,73862.5,1.05,-0.37,-0.29,0,*73
1507719606.34,55886,11.38,73852.5,1.07,-0.37,-0.27,0,*7C
1507719607.52,55887,11.38,73846.3,1.05,-0.29,-0.29,0,*7E
1507719608.7,55888,11.38,73838.3,1.05,-0.29,-0.29,0,*71
1507719609.91,55889,11.38,73842.5,1.07,-0.37,-0.29,0,*7D
1507719611.15,55890,11.38,73836.3,1.07,-0.27,-0.29,0,*74
1507719612.34,55891,11.38,73834.0,1.05,-0.19,-0.19,0,*79
1507719613.57,55892,11.38,73838.8,1.05,-0.27,-0.27,0,*7A
1507719614.77,55893,11.38,73838.0,1.05,-0.29,-0.27,0,*75
1507719615.96,55894,11.38,73838.5,1.05,-0.29,-0.37,0,*73
1507719617.15,55895,11.38,73844.3,1.05,-0.37,-0.37,0,*7D
1507719618.32,55896,11.38,73844.3,1.05,-0.29,-0.29,0,*7E
1507719619.54,55897,11.38,73846.0,1.07,-0.29,-0.19,0,*7E
1507719620.74,55898,11.38,73850.0,1.05,-0.29,-0.27,0,*7E
1507719621.92,55899,11.38,73844.3,1.05,-0.29,-0.29,0,*71
1507719623.1,55900,11.38,73844.8,1.05,-0.37,-0.29,0,*7F
1507719624.29,55901,11.38,73850.3,1.05,-0.41,-0.37,0,*70
1507719625.48,55902,11.38,73850.8,1.05,-0.49,-0.41,0,*7A
1507719626.68,55903,11.38,73850.0,1.05,-0.41,-0.37,0,*72
1507719627.87,55904,11.38,73846.3,1.05,-0.41,-0.37,0,*75
1507719629.05,55905,11.38,73848.3,1.05,-0.49,-0.37,0,*7C
1507719630.25,55906,11.38,73848.0,1.05,-0.41,-0.37,0,*77
1507719631.43,55907,11.38,73854.8,1.05,-0.41,-0.29,0,*79
1507719632.65,55908,11.38,73854.3,1.07,-0.41,-0.37,0,*7B
1507719633.83,55909,11.38,73856.3,1.05,-0.37,-0.29,0,*76
1507719635.03,55910,11.38,73852.5,1.05,-0.41,-0.37,0,*70
1507719636.22,55911,11.38,73858.5,1.05,-0.37,-0.37,0,*70
1507719637.41,55912,11.38,73858.3,1.05,-0.41,-0.37,0,*72
1507719638.59,55913,11.38,73854.5,1.05,-0.41,-0.29,0,*7C
1507719639.78,55914,11.38,73852.0,1.05,-0.29,-0.37,0,*7A
1507719640.95,55915,11.38,73856.0,1.05,-0.29,-0.29,0,*74
1507719642.14,55916,11.38,73854.5,1.05,-0.37,-0.29,0,*78
1507719643.32,55917,11.38,73858.0,1.05,-0.29,-0.37,0,*79
1507719644.5,55918,11.38,73852.5,1.05,-0.29,-0.29,0,*79
1507719645.68,55919,11.38,73858.5,1.05,-0.29,-0.29,0,*78
1507719646.91,55920,11.38,73852.8,1.07,-0.29,-0.27,0,*7E
1507719648.09,55921,11.38,73856.0,1.05,-0.29,-0.19,0,*70
1507719649.28,55922,11.38,73858.8,1.05,-0.19,-0.19,0,*70
1507719650.47,55923,11.38,73862.8,1.05,-0.19,-0.19,0,*71
1507719651.66,55924,11.38,73860.8,1.05,-0.19,-0.19,0,*76
1507719652.85,55925,11.38,73860.5,1.05,-0.19,-0.19,0,*77
1507719654.04,55926,11.38,73858.8,1.05,-0.19,-0.19,0,*74
1507719655.23,55927,11.38,73858.5,1.05,-0.19,-0.15,0,*79
1507719656.43,55928,11.38,73862.5,1.05,-0.19,-0.15,0,*76
1507719657.62,55929,11.38,73862.3,1.05,-0.19,-0.15,0,*77
1507719658.8,55930,11.38,73860.0,1.05,-0.19,-0.03,0,*48
1507719659.99,55931,11.38,73860.3,1.05,-0.19,-0.15,0,*7E
1507719661.19,55932,11.38,73858.0,1.05,-0.19,-0.15,0,*7D
1507719662.38,55933,11.38,73854.3,1.05,-0.19,-0.15,0,*7C
1507719663.59,55934,11.38,73858.3,1.07,-0.15,-0.15,0,*75
1507719664.8,55935,11.38,73852.5,1.07,-0.15,-0.07,0,*47
1507719666.02,55936,11.38,73854.0,1.07,-0.07,-0.15,0,*44
1507719667.22,55937,11.38,73852.0,1.07,-0.07,-0.03,0,*72
1507719668.44,55938,11.38,73852.3,1.07,-0.15,-0.15,0,*79
1507719669.62,55939,11.38,73854.0,1.05,-0.15,-0.07,0,*49
1507719670.83,55940,11.31,73848.3,1.07,-0.07,-0.07,0,*76
1507719672.0,55941,11.38,73858.0,1.05,-0.07,0.05,0,*5A
1507719673.2,55942,11.38,73856.0,1.07,-0.07,-0.03,0,*70
1507719674.38,55943,11.38,73856.0,1.05,-0.15,-0.03,0,*40
1507719675.59,55944,11.38,73852.5,1.07,-0.07,-0.03,0,*76
1507719676.79,55945,11.38,73856.5,1.07,-0.03,-0.03,0,*73
1507719678.0,55946,11.38,73858.8,1.07,-0.03,-0.07,0,*74
1507719679.21,55947,11.38,73854.5,1.07,-0.03,0.05,0,*5A
1507719680.38,55948,11.38,73852.8,1.05,-0.07,-0.03,0,*78
1507719681.59,55949,11.38,73854.0,1.07,-0.15,-0.03,0,*48
1507719682.8,55950,11.38,73848.0,1.07,-0.07,-0.07,0,*77
1507719684.0,55951,11.38,73838.5,1.07,-0.07,-0.03,0,*72
1507719685.18,55952,11.38,73836.3,1.05,-0.03,-0.03,0,*77
1507719686.38,55953,11.38,73836.3,1.07,-0.07,-0.03,0,*70
1507719687.59,55954,11.38,73846.0,1.07,-0.07,-0.03,0,*77
1507719688.76,55955,11.38,73842.5,1.05,-0.07,-0.03,0,*74
1507719689.97,55956,11.38,73844.8,1.07,-0.07,-0.15,0,*42
1507719691.18,55957,11.38,73844.5,1.07,-0.15,-0.07,0,*43
1507719692.4,55958,11.38,73842.5,1.07,-0.07,-0.15,0,*4C
1507719693.6,55959,11.38,73838.8,1.07,-0.07,-0.07,0,*7E
1507719694.81,55960,11.38,73842.0,1.07,-0.15,-0.07,0,*47
1507719696.06,55961,11.38,73840.5,1.07,-0.27,-0.15,0,*74
1507719697.28,55962,11.38,73840.3,1.07,-0.19,-0.19,0,*76
1507719698.48,55963,11.38,73842.0,1.07,-0.07,-0.07,0,*77
1507719699.7,55964,11.38,73842.5,1.07,-0.15,-0.15,0,*70
1507719700.9,55965,11.38,73842.3,1.07,-0.07,-0.07,0,*71
1507719702.12,55966,11.38,73842.0,1.07,-0.15,-0.15,0,*72
1507719703.33,55967,11.38,73844.8,1.07,-0.07,-0.15,0,*40
1507719704.54,55968,11.38,73842.5,1.07,-0.15,-0.07,0,*4F
1507719705.75,55969,11.38,73844.5,1.07,-0.15,-0.07,0,*4E
1507719706.96,55970,11.38,73846.8,1.07,-0.07,-0.07,0,*75
1507719708.17,55971,11.38,73844.0,1.09,-0.11,-0.03,0,*49
1507719709.37,55972,11.38,73850.0,1.09,-0.11,0.01,0,*65
1507719710.58,55973,11.38,73850.8,1.09,-0.11,-0.03,0,*4B
1507719711.78,55974,11.38,73848.5,1.09,-0.03,-0.03,0,*7F
1507719712.98,55975,11.38,73850.8,1.09,-0.11,0.01,0,*62
1507719714.19,55976,11.38,73850.0,1.09,-0.11,-0.03,0,*4E
1507719715.4,55977,11.38,73850.5,1.09,-0.11,-0.03,0,*4F
1507719716.6,55978,11.38,73848.5,1.09,-0.03,-0.03,0,*73
1507719717.8,55979,11.38,73844.8,1.09,-0.15,0.01,0,*6A
1507719719.01,55980,11.38,73850.3,1.09,-0.15,-0.11,0,*70
1507719720.23,55981,11.38,73846.0,1.09,-0.11,-0.11,0,*75
1507719721.44,55982,11.38,73844.8,1.09,-0.11,-0.03,0,*45
1507719722.64,55983,11.38,73848.3,1.09,-0.03,-0.03,0,*77
1507719723.84,55984,11.38,73850.3,1.09,-0.03,0.01,0,*5F
1507719725.05,55985,11.38,73846.0,1.07,-0.15,-0.03,0,*48
1507719726.26,55986,11.38,73850.3,1.07,-0.15,-0.07,0,*4F
1507719727.45,55987,11.38,73850.3,1.09,-0.03,0.01,0,*5C
1507719728.62,55988,11.38,73848.8,1.11,0.01,0.05,0,*71
1507719729.82,55989,11.38,73850.5,1.09,-0.03,-0.03,0,*7D
1507719731.02,55990,11.38,73848.3,1.09,-0.11,0.01,0,*69
1507719732.22,55991,11.38,73848.5,1.09,-0.03,0.01,0,*5B
1507719733.42,55992,11.38,73846.8,1.07,-0.07,-0.03,0,*7D
1507719734.63,55993,11.38,73852.0,1.07,-0.07,-0.03,0,*7C
1507719735.84,55994,11.38,73852.3,1.07,-0.03,-0.03,0,*7F
1507719737.01,55995,11.38,73856.3,1.11,-0.07,0.05,0,*56
1507719738.2,55996,11.38,73856.5,1.09,0.01,0.09,0,*7B
1507719739.39,55997,11.38,73854.5,1.09,-0.03,0.01,0,*5D
1507719740.58,55998,11.38,73852.5,1.09,0.09,0.01,0,*75
1507719741.77,55999,11.38,73858.5,1.09,0.01,0.01,0,*7C
1507719742.95,56000,11.31,73854.8,1.09,0.01,0.01,0,*76
1507719744.17,56001,11.38,73858.5,1.09,0.13,0.05,0,*40
1507719745.37,56002,11.38,73858.8,1.09,-0.03,0.09,0,*53
1507719746.56,56003,11.38,73862.3,1.11,0.05,0.13,0,*4B
1507719747.76,56004,11.38,73860.3,1.09,-0.03,0.09,0,*55
1507719748.96,56005,11.38,73858.3,1.09,-0.03,0.09,0,*54
1507719750.17,56006,11.38,73862.0,1.11,0.13,0.13,0,*79
1507719751.37,56007,11.38,73860.5,1.11,0.05,0.13,0,*4F
1507719752.54,56008,11.31,73852.8,1.11,0.05,0.05,0,*77
1507719753.73,56009,11.38,73854.0,1.09,0.09,0.09,0,*7F
1507719754.94,56010,11.38,73852.3,1.09,0.01,0.13,0,*44
1507719756.13,56011,11.38,73852.8,1.11,0.13,0.05,0,*48
1507719757.33,56012,11.38,73852.3,1.11,0.05,0.13,0,*4B
1507719758.52,56013,11.38,73850.3,1.11,0.05,0.13,0,*4A
1507719759.74,56014,11.38,73852.8,1.11,0.13,0.13,0,*7A
1507719760.93,56015,11.38,73852.0,1.11,0.13,0.05,0,*4C
1507719762.15,56016,11.38,73858.0,1.13,0.05,0.13,0,*4D
1507719763.34,56017,11.38,73854.8,1.11,0.09,0.13,0,*42
1507719764.56,56018,11.38,73854.8,1.11,0.13,0.13,0,*76
1507719765.74,56019,11.38,73860.0,1.09,0.01,0.09,0,*76
1507719766.95,56020,11.38,73856.3,1.09,0.01,0.13,0,*47
1507719768.15,56021,11.38,73856.8,1.11,0.05,0.13,0,*4B
1507719769.34,56022,11.38,73856.8,1.11,0.05,0.17,0,*4C
1507719770.55,56023,11.38,73858.0,1.11,0.13,0.13,0,*7E
1507719771.77,56024,11.38,73856.8,1.11,0.13,0.13,0,*79
1507719772.96,56025,11.38,73856.5,1.11,0.05,0.13,0,*4F
1507719774.18,56026,11.38,73854.0,1.13,0.13,0.05,0,*4E
1507719775.4,56027,11.38,73856.8,1.13,0.05,0.13,0,*4F
1507719776.62,56028,11.38,73852.0,1.13,0.05,0.13,0,*40
1507719777.82,56029,11.38,73854.5,1.15,0.09,0.17,0,*4F
1507719779.04,56030,11.38,73854.0,1.13,0.13,0.05,0,*49
1507719780.26,56031,11.38,73854.3,1.13,0.05,0.13,0,*48
1507719781.45,56032,11.38,73850.8,1.13,0.05,0.01,0,*78
1507719782.66,56033,11.38,73852.5,1.13,0.01,0.13,0,*4E
1507719783.86,56034,11.38,73852.5,1.13,0.05,0.05,0,*7A
1507719785.06,56035,11.31,73850.0,1.13,0.05,0.05,0,*7B
1507719786.28,56036,11.38,73848.5,1.13,0.05,0.13,0,*4F
1507719787.48,56037,11.38,73852.3,1.13,0.05,0.05,0,*79
1507719788.69,56038,11.38,73848.0,1.13,0.01,0.13,0,*45
1507719789.91,56039,11.38,73852.8,1.13,0.05,0.13,0,*40
1507719791.11,56040,11.38,73854.5,1.13,0.05,0.05,0,*79
1507719792.35,56041,11.38,73852.3,1.13,0.13,0.13,0,*78
1507719793.54,56042,11.38,73848.8,1.13,0.01,0.05,0,*7F
1507719794.7,56043,11.38,73850.8,1.11,0.01,0.05,0,*7C
1507719795.89,56044,11.38,73850.5,1.11,0.01,0.13,0,*4C
1507719797.06,56045,11.38,73850.0,1.11,0.01,0.05,0,*7A
1507719798.28,56046,11.38,73852.0,1.13,0.13,0.05,0,*48
1507719799.5,56047,11.38,73850.3,1.13,0.05,0.13,0,*49
1507719800.69,56048,11.38,73848.0,1.15,0.17,0.09,0,*48
1507719801.88,56049,11.38,73848.0,1.13,0.01,0.05,0,*74
1507719803.1,56050,11.38,73846.3,1.13,0.01,0.13,0,*4B
1507719804.29,56051,11.38,73850.3,1.15,0.05,0.17,0,*4C
1507719805.49,56052,11.38,73844.3,1.15,0.05,0.17,0,*4F
1507719806.69,56053,11.38,73844.5,1.13,-0.07,0.05,0,*54
1507719807.88,56054,11.38,73850.5,1.15,0.09,0.17,0,*45
1507719809.1,56055,11.31,73842.3,1.13,0.05,0.13,0,*4A
1507719810.3,56056,11.38,73842.8,1.13,0.05,0.05,0,*7E
1507719811.49,56057,11.38,73844.3,1.13,0.01,0.05,0,*7B
1507719812.71,56058,11.38,73846.0,1.13,0.05,0.13,0,*47
1507719813.95,56059,11.38,73846.0,1.13,0.13,0.13,0,*71
1507719815.16,56060,11.38,73844.5,1.13,-0.07,0.05,0,*54
1507719816.37,56061,11.38,73848.0,1.13,0.01,0.13,0,*49
1507719817.56,56062,11.38,73848.8,1.15,0.05,0.17,0,*4C
1507719818.78,56063,11.38,73848.3,1.13,0.05,0.13,0,*4F
1507719819.96,56064,11.38,73846.0,1.15,0.09,0.09,0,*79
1507719821.13,56065,11.31,73846.8,1.15,0.09,0.09,0,*78
1507719822.35,56066,11.38,73854.8,1.13,0.05,0.13,0,*4A
1507719823.57,56067,11.38,73854.5,1.13,0.13,0.05,0,*4B
1507719824.79,56068,11.31,73852.5,1.13,0.05,0.13,0,*44
1507719826.01,56069,11.38,73854.3,1.13,0.05,0.13,0,*45
1507719827.23,56070,11.38,73850.8,1.15,0.17,0.17,0,*7C
1507719828.42,56071,11.38,73846.3,1.13,0.05,0.05,0,*7B
1507719829.64,56072,11.38,73848.8,1.13,0.13,0.05,0,*4F
1507719830.89,56073,11.31,73848.3,1.13,0.13,0.13,0,*79
1507719832.11,56074,11.31,73844.8,1.13,0.05,0.13,0,*49
1507719833.35,56075,11.38,73850.0,1.13,0.13,0.13,0,*7F
1507719834.59,56076,11.31,73840.3,1.13,0.13,0.13,0,*7C
1507719835.83,56077,11.38,73836.5,1.13,0.13,0.13,0,*7D
1507719837.05,56078,11.38,73840.0,1.13,0.05,0.17,0,*41
1507719838.29,56079,11.38,73840.5,1.13,0.13,0.17,0,*77
1507719839.49,56080,11.38,73844.0,1.15,0.09,0.17,0,*4C
1507719840.66,56081,11.38,73844.3,1.15,0.09,0.09,0,*72
1507719841.88,56082,11.38,73844.8,1.15,0.17,0.17,0,*71
1507719843.1,56083,11.38,73846.0,1.15,0.17,0.17,0,*70
1507719844.29,56084,11.38,73846.0,1.15,0.09,0.17,0,*48
1507719845.49,56085,11.38,73838.5,1.15,0.17,0.09,0,*49
1507719846.7,56086,11.38,73844.3,1.15,0.17,0.17,0,*75
1507719847.9,56087,11.38,73848.3,1.15,0.09,0.17,0,*4B
1507719849.12,56088,11.38,73850.8,1.13,0.05,0.17,0,*4E
1507719850.34,56089,11.38,73848.3,1.15,0.17,0.17,0,*7A
1507719851.51,56090,11.38,73846.0,1.15,0.09,0.09,0,*72
1507719852.73,56091,11.38,73840.5,1.13,0.05,0.13,0,*42
1507719853.92,56092,11.38,73844.5,1.15,0.09,0.17,0,*4F
1507719855.14,56093,11.38,73846.8,1.15,0.17,0.17,0,*71
1507719856.34,56094,11.38,73848.8,1.13,0.05,0.05,0,*70
1507719857.54,56095,11.38,73840.5,1.15,0.09,0.17,0,*48
1507719858.73,56096,11.38,73848.8,1.15,0.09,0.17,0,*4B
1507719859.93,56097,11.38,73850.8,1.15,0.09,0.17,0,*4A
1507719861.14,56098,11.38,73854.5,1.13,0.01,0.13,0,*4F
1507719862.38,56099,11.38,73848.0,1.13,0.13,0.17,0,*79
1507719863.55,56100,11.38,73850.5,1.15,0.05,0.09,0,*76
1507719864.75,56101,11.38,73846.3,1.13,0.01,0.05,0,*79
1507719865.93,56102,11.38,73850.0,1.15,-0.03,-0.03,0,*78
1507719867.11,56103,11.38,73844.3,1.15,-0.03,0.05,0,*52
1507719868.29,56104,11.38,73846.3,1.15,-0.03,-0.03,0,*7E
1507719869.47,56105,11.38,73848.5,1.15,-0.03,-0.03,0,*7F
1507719870.65,56106,11.38,73846.5,1.15,0.05,0.05,0,*7C
1507719871.82,56107,11.38,73848.5,1.15,0.05,0.05,0,*7D
1507719873.0,56108,11.31,73846.8,1.15,0.05,0.05,0,*72
1507719874.18,56109,11.38,73846.5,1.15,-0.03,0.05,0,*58
1507719875.35,56110,11.38,73850.0,1.15,0.05,0.09,0,*77
1507719876.53,56111,11.38,73848.0,1.15,-0.03,-0.03,0,*7A
1507719877.73,56112,11.38,73842.3,1.13,-0.07,0.01,0,*54
1507719878.91,56113,11.38,73846.0,1.15,-0.07,-0.03,0,*7C
1507719880.09,56114,11.38,73844.0,1.15,-0.03,-0.03,0,*7F
1507719881.27,56115,11.38,73836.0,1.15,-0.03,-0.03,0,*7E
1507719882.45,56116,11.38,73842.8,1.15,-0.07,-0.03,0,*79
1507719883.64,56117,11.38,73840.5,1.15,-0.07,-0.15,0,*4F
1507719884.82,56118,11.38,73836.8,1.15,-0.15,0.05,0,*6F
1507719886.0,56119,11.38,73836.0,1.15,-0.03,-0.03,0,*72
1507719887.19,56120,11.38,73838.3,1.15,-0.15,-0.03,0,*4F
1507719888.37,56121,11.38,73842.8,1.15,-0.07,-0.03,0,*7D
1507719889.55,56122,11.31,73834.8,1.15,-0.07,-0.03,0,*7E
1507719890.73,56123,11.38,73836.3,1.15,-0.07,-0.03,0,*7F
1507719891.92,56124,11.38,73840.0,1.15,-0.15,-0.15,0,*7C
1507719893.11,56125,11.38,73840.5,1.15,-0.15,-0.03,0,*4A
1507719894.29,56126,11.38,73836.8,1.15,-0.15,-0.03,0,*49
1507719895.48,56127,11.38,73836.8,1.15,-0.15,-0.03,0,*48
1507719896.7,56128,11.38,73842.8,1.13,-0.11,-0.11,0,*76
1507719897.88,56129,11.38,73846.0,1.15,-0.03,0.05,0,*5A
1507719899.06,56130,11.38,73850.5,1.15,-0.07,-0.03,0,*7D
1507719900.24,56131,11.38,73846.5,1.15,-0.07,-0.03,0,*7C
1507719901.42,56132,11.38,73848.0,1.15,-0.07,-0.07,0,*7B
1507719902.6,56133,11.38,73850.0,1.15,-0.07,-0.03,0,*7E
1507719903.78,56134,11.38,73844.0,1.15,-0.03,-0.03,0,*7D
1507719904.97,56135,11.38,73846.5,1.15,-0.11,-0.07,0,*4B
1507719906.15,56136,11.38,73844.5,1.15,-0.07,-0.07,0,*7F
1507719907.32,56137,11.38,73844.0,1.15,0.05,0.05,0,*7E
1507719908.53,56138,11.38,73846.3,1.13,-0.07,-0.07,0,*77
1507719909.71,56139,11.38,73842.3,1.15,-0.07,-0.03,0,*74
1507719910.9,56140,11.38,73844.3,1.13,-0.07,0.01,0,*53
1507719912.08,56141,11.38,73848.3,1.15,-0.03,0.05,0,*54
1507719913.26,56142,11.38,73850.8,1.15,-0.07,-0.03,0,*78
1507719914.45,56143,11.38,73848.0,1.15,-0.15,-0.07,0,*4E
1507719915.63,56144,11.38,73846.5,1.15,-0.07,0.05,0,*55
1507719916.81,56145,11.38,73848.3,1.15,-0.03,-0.03,0,*7B
1507719917.99,56146,11.38,73854.0,1.15,-0.03,0.05,0,*53
1507719919.18,56147,11.38,73846.3,1.13,0.01,0.01,0,*7F
1507719920.36,56148,11.38,73846.8,1.15,-0.03,0.05,0,*5D
1507719921.53,56149,11.38,73850.3,1.15,-0.07,0.05,0,*58
1507719922.71,56150,11.38,73850.3,1.15,-0.03,0.05,0,*54
1507719923.89,56151,11.38,73852.3,1.15,-0.03,0.05,0,*55
1507719925.07,56152,11.38,73854.5,1.15,-0.03,0.05,0,*56
1507719926.25,56153,11.38,73848.3,1.15,-0.03,0.05,0,*57
1507719927.43,56154,11.38,73846.8,1.15,-0.07,0.05,0,*54
1507719928.61,56155,11.38,73844.8,1.15,-0.15,0.05,0,*66
1507719929.82,56156,11.38,73846.5,1.13,-0.11,-0.07,0,*48
1507719931.01,56157,11.38,73848.8,1.15,-0.03,-0.03,0,*78
1507719932.21,56158,11.38,73848.3,1.13,-0.07,-0.07,0,*71
1507719933.39,56159,11.38,73850.3,1.15,-0.07,-0.03,0,*72
1507719934.57,56160,11.38,73844.5,1.15,-0.03,-0.03,0,*7C
1507719935.75,56161,11.38,73846.3,1.15,-0.03,0.05,0,*56
1507719936.93,56162,11.38,73850.8,1.15,-0.07,-0.03,0,*7A
1507719938.13,56163,11.38,73852.5,1.13,-0.07,0.01,0,*52
1507719939.3,56164,11.38,73850.3,1.15,0.05,0.05,0,*78
1507719940.48,56165,11.31,73844.3,1.15,0.05,0.09,0,*75
1507719941.66,56166,11.38,73846.3,1.15,-0.03,0.05,0,*51
1507719942.84,56167,11.38,73850.5,1.15,-0.03,0.05,0,*50
1507719944.01,56168,11.38,73844.5,1.15,0.05,0.05,0,*74
1507719945.19,56169,11.38,73846.5,1.15,0.05,0.05,0,*75
1507719946.36,56170,11.38,73848.8,1.15,0.05,0.09,0,*71
1507719947.56,56171,11.38,73846.3,1.13,-0.07,0.01,0,*51
1507719948.76,56172,11.38,73846.8,1.13,-0.07,0.05,0,*56
1507719949.93,56173,11.38,73848.5,1.15,0.05,0.09,0,*72
1507719951.11,56174,11.31,73846.8,1.15,-0.03,0.05,0,*52
1507719952.29,56175,11.38,73848.5,1.15,-0.03,0.05,0,*53
1507719953.47,56176,11.38,73848.0,1.15,-0.03,0.05,0,*50
1507719954.64,56177,11.38,73848.3,1.15,0.05,0.05,0,*7A
1507719955.82,56178,11.38,73850.3,1.15,0.05,0.05,0,*75
1507719957.0,56179,11.31,73850.3,1.15,-0.03,0.09,0,*53
1507719958.17,56180,11.31,73852.0,1.15,0.05,0.05,0,*72
1507719959.35,56181,11.38,73854.8,1.15,0.05,0.09,0,*7F
1507719960.54,56182,11.38,73852.0,1.15,0.05,0.17,0,*43
1507719961.72,56183,11.38,73852.5,1.15,0.05,0.09,0,*7D
1507719962.9,56184,11.31,73854.5,1.15,-0.03,0.05,0,*5D
1507719964.07,56185,11.38,73862.8,1.15,0.05,-0.03,0,*5C
1507719965.25,56186,11.31,73864.8,1.15,-0.03,0.05,0,*5F
1507719966.43,56187,11.38,73874.3,1.15,0.05,-0.03,0,*5E
1507719967.61,56188,11.38,73868.3,1.15,0.05,-0.03,0,*51
1507719968.79,56189,11.38,73856.5,1.15,-0.03,0.05,0,*50
1507719969.97,56190,11.38,73860.3,1.15,-0.03,0.05,0,*58
1507719971.18,56191,11.38,73852.0,1.13,-0.11,-0.07,0,*43
1507719972.36,56192,11.38,73848.8,1.15,-0.07,0.05,0,*5E
1507719973.54,56193,11.38,73840.8,1.15,-0.03,-0.03,0,*70
1507719974.74,56194,11.38,73842.0,1.13,-0.07,0.01,0,*5A
1507719975.92,56195,11.31,73840.0,1.15,-0.03,-0.03,0,*76
1507719977.1,56196,11.38,73840.3,1.15,-0.15,-0.03,0,*42
1507719978.29,56197,11.31,73838.0,1.15,-0.03,-0.03,0,*74
1507719979.47,56198,11.38,73836.5,1.15,-0.07,-0.03,0,*7F
1507719980.64,56199,11.31,73838.8,1.15,-0.07,0.05,0,*55
1507719981.82,56200,11.38,73842.8,1.15,-0.03,0.05,0,*52
1507719983.0,56201,11.38,73842.0,1.15,-0.03,0.05,0,*53
1507719984.18,56202,11.38,73838.0,1.15,-0.03,0.09,0,*5C
1507719985.36,56203,11.38,73836.8,1.15,-0.03,0.05,0,*51
1507719986.54,56204,11.38,73834.8,1.15,0.05,0.05,0,*7D
1507719987.71,56205,11.38,73840.8,1.15,-0.03,0.05,0,*57
1507719988.92,56206,11.38,73846.8,1.13,-0.07,-0.07,0,*79
1507719990.11,56207,11.31,73842.0,1.13,0.01,0.05,0,*7C
1507719991.29,56208,11.38,73844.5,1.15,-0.03,0.05,0,*5A
1507719992.45,56209,11.38,73846.0,1.15,0.01,0.01,0,*70
1507719993.63,56210,11.38,73844.8,1.15,0.05,0.05,0,*78
1507719994.8,56211,11.38,73844.5,1.15,0.05,0.05,0,*79
1507719996.01,56212,11.38,73850.0,1.13,-0.07,-0.07,0,*7C
1507719997.19,56213,11.38,73844.8,1.15,-0.03,0.05,0,*50
1507719998.37,56214,11.38,73850.8,1.15,-0.03,0.05,0,*57
1507719999.56,56215,11.38,73858.3,1.17,-0.03,0.05,0,*54
1507720000.74,56216,11.38,73854.8,1.15,-0.03,0.05,0,*55
1507720001.94,56217,11.38,73854.3,1.13,-0.07,0.01,0,*52
1507720003.12,56218,11.31,73848.3,1.15,-0.03,-0.03,0,*70
1507720004.31,56219,11.31,73848.0,1.15,-0.03,-0.03,0,*71
1507720005.49,56220,11.38,73854.0,1.15,-0.03,-0.03,0,*7B
1507720006.67,56221,11.31,73848.5,1.15,-0.03,0.05,0,*51
1507720007.87,56222,11.38,73848.5,1.13,-0.07,-0.07,0,*7F
1507720009.06,56223,11.38,73850.8,1.13,0.01,0.01,0,*7E
1507720010.25,56224,11.38,73848.8,1.13,-0.07,0.01,0,*52
1507720011.48,56225,11.38,73854.0,1.13,-0.11,-0.11,0,*78
1507720012.66,56226,11.38,73854.8,1.15,-0.07,-0.03,0,*79
1507720013.83,56227,11.38,73860.8,1.15,-0.07,0.05,0,*53
1507720015.05,56228,11.38,73860.8,1.13,-0.11,-0.07,0,*42
1507720016.24,56229,11.38,73854.5,1.13,-0.07,0.01,0,*5F
1507720017.42,56230,11.38,73854.8,1.15,-0.03,0.05,0,*51
1507720018.61,56231,11.38,73846.3,1.13,0.01,0.01,0,*7D
1507720019.79,56232,11.38,73844.0,1.15,-0.03,0.09,0,*5F
1507720020.96,56233,11.38,73846.0,1.15,0.05,0.09,0,*75
1507720022.14,56234,11.31,73846.5,1.15,-0.03,0.09,0,*59
1507720023.32,56235,11.38,73848.5,1.15,0.05,0.09,0,*73
1507720024.49,56236,11.38,73850.5,1.15,0.09,0.05,0,*70
1507720025.67,56237,11.38,73846.0,1.15,0.05,0.09,0,*71
1507720026.84,56238,11.38,73846.8,1.15,0.05,0.09,0,*7E
1507720028.01,56239,11.38,73842.5,1.15,0.05,0.09,0,*7F
1507720029.23,56240,11.38,73844.8,1.13,0.01,0.13,0,*48
1507720030.4,56241,11.38,73846.5,1.15,0.05,0.09,0,*70
1507720031.58,56242,11.38,73840.5,1.15,0.05,0.05,0,*7F
1507720032.77,56243,11.38,73844.3,1.17,0.05,0.09,0,*70
1507720033.96,56244,11.38,73842.3,1.17,0.09,0.09,0,*7B
1507720035.14,56245,11.38,73842.8,1.15,0.05,0.09,0,*74
1507720036.31,56246,11.38,73842.0,1.15,0.05,0.09,0,*77
1507720037.49,56247,11.38,73840.5,1.15,-0.03,0.05,0,*51
1507720038.66,56248,11.38,73840.3,1.15,0.05,0.05,0,*75
1507720039.84,56249,11.38,73842.0,1.15,-0.03,0.05,0,*5F
1507720041.04,56250,11.38,73846.0,1.15,-0.03,0.17,0,*64
1507720042.22,56251,11.38,73842.8,1.15,0.05,0.09,0,*71
1507720043.4,56252,11.38,73842.0,1.15,-0.03,0.09,0,*59
1507720044.57,56253,11.31,73840.3,1.15,0.05,0.05,0,*7F
1507720045.75,56254,11.38,73848.3,1.15,-0.03,-0.03,0,*78
1507720046.94,56255,11.38,73852.0,1.15,-0.03,-0.07,0,*7D
1507720048.14,56256,11.38,73856.0,1.13,-0.07,-0.07,0,*7C
1507720049.32,56257,11.38,73856.0,1.15,-0.03,-0.03,0,*7B
1507720050.5,56258,11.38,73856.0,1.15,-0.03,0.05,0,*5F
1507720051.69,56259,11.38,73856.0,1.15,-0.03,-0.03,0,*75
1507720052.87,56260,11.31,73858.0,1.15,-0.03,-0.03,0,*7F
1507720054.05,56261,11.38,73860.0,1.15,-0.07,-0.07,0,*7E
1507720055.23,56262,11.38,73862.3,1.15,-0.07,-0.03,0,*79
1507720056.42,56263,11.38,73862.5,1.17,-0.07,0.05,0,*51
1507720057.62,56264,11.38,73860.5,1.17,-0.03,-0.03,0,*79
1507720058.82,56265,11.38,73862.0,1.17,-0.03,0.05,0,*53
1507720060.02,56266,11.31,73856.3,1.17,0.05,0.05,0,*7B
1507720061.22,56267,11.38,73860.5,1.17,-0.03,0.05,0,*51
1507720062.42,56268,11.31,73858.8,1.17,-0.03,0.05,0,*5E
1507720063.61,56269,11.38,73864.5,1.17,-0.03,0.05,0,*5F
1507720064.81,56270,11.38,73864.3,1.17,-0.03,0.09,0,*5B
1507720065.99,56271,11.38,73862.8,1.15,0.05,0.05,0,*7F
1507720067.16,56272,11.38,73864.8,1.15,0.05,-0.03,0,*57
1507720068.34,56273,11.38,73862.8,1.15,0.05,0.09,0,*71
1507720069.52,56274,11.38,73858.3,1.15,-0.03,0.05,0,*51
1507720070.7,56275,11.38,73860.3,1.15,-0.03,0.05,0,*50
1507720071.87,56276,11.38,73852.3,1.15,0.05,0.05,0,*78
1507720073.04,56277,11.38,73852.3,1.15,0.05,0.01,0,*7D
1507720074.24,56278,11.31,73844.8,1.17,0.05,0.05,0,*74
1507720075.44,56279,11.38,73850.8,1.17,-0.03,0.05,0,*5E
1507720076.64,56280,11.38,73848.8,1.17,-0.03,-0.03,0,*73
1507720077.83,56281,11.31,73846.3,1.17,0.05,0.09,0,*7E
1507720079.02,56282,11.31,73842.0,1.17,0.05,0.09,0,*7D
1507720080.22,56283,11.38,73844.3,1.17,-0.03,0.05,0,*5B
1507720081.42,56284,11.38,73850.0,1.17,-0.03,0.05,0,*5C
1507720082.62,56285,11.31,73850.8,1.17,-0.03,0.05,0,*5D
1507720083.82,56286,11.38,73854.0,1.17,-0.03,0.09,0,*52
1507720085.01,56287,11.31,73854.0,1.17,0.05,0.09,0,*78
1507720086.21,56288,11.38,73852.0,1.17,-0.03,0.05,0,*50
1507720087.41,56289,11.38,73854.8,1.17,-0.03,0.05,0,*51
1507720088.61,56290,11.38,73858.3,1.17,-0.03,0.05,0,*59
1507720089.81,56291,11.38,73852.8,1.17,-0.03,0.05,0,*58
1507720091.01,56292,11.38,73852.8,1.17,-0.03,0.05,0,*5B
1507720092.2,56293,11.31,73850.5,1.17,0.05,0.05,0,*71
1507720093.4,56294,11.38,73854.0,1.17,0.05,0.05,0,*76
1507720094.6,56295,11.38,73854.3,1.17,-0.03,0.05,0,*5C
1507720095.78,56296,11.31,73852.5,1.21,0.01,0.09,0,*79
1507720096.98,56297,11.38,73856.3,1.17,-0.03,-0.03,0,*75
1507720098.17,56298,11.38,73858.5,1.17,0.05,0.09,0,*76
1507720099.35,56299,11.38,73856.3,1.15,0.05,-0.03,0,*52
1507720100.55,56300,11.38,73852.3,1.17,-0.03,-0.03,0,*7A
1507720101.75,56301,11.38,73854.8,1.17,-0.03,0.09,0,*5C
1507720102.95,56302,11.31,73850.5,1.17,-0.03,0.09,0,*5F
1507720104.15,56303,11.38,73850.5,1.17,-0.03,0.05,0,*52
1507720105.35,56304,11.38,73848.8,1.17,-0.03,0.05,0,*55
1507720106.53,56305,11.31,73848.3,1.21,0.01,0.09,0,*72
1507720107.73,56306,11.38,73852.8,1.17,-0.03,-0.03,0,*7C
1507720108.93,56307,11.38,73854.0,1.17,0.05,-0.03,0,*56
1507720110.13,56308,11.38,73854.8,1.17,-0.03,-0.03,0,*72
1507720111.33,56309,11.38,73856.8,1.17,0.05,0.05,0,*73